Погода Петропавловск-Камч.

Погода Петропавловск-Камч. : погода сейчас, прогноз погоды и архив. Всё, что Вы хотите узнать о погоде Петропавловск-Камч.!

Хотите узнать прогноз погоды Петропавловск-Камч.? Тогда Вам сюда: Погода Петропавловск-Камч.

Поиск расширенной информации на нашем сайте:

Другие новости

Новости СМИ2

Главная страница сайта

Новости сайта

03.07.2017

Напоминаем, что на нашем специализированном сайте Метеоцентр.Азия вы можете получить высокодетализированные автоматические прогнозы погоды по пунктам России, СНГ и мира в авиационном формате (включающие направление и скорость ветра, видимость, явления погоды, количество и форму облачности, нижнюю и верхнюю границу облачности).


Погода Петропавловск-Камч. - сегодня

Время (UTC), дата Ветер
(°,м/с) 
Видим.   Явления Облачность Т
(°С)
Тd
(°С)
f(%) Тe
(°С)
Pmin
(гПа)
dP
(гПа)
Po
(мм)
O2
(г/м3)
Тmin Tmax R s Состояние
почвы
00 19.02.18 340 (С) 6{10}  20000 м    10/0 верхняя 
[Cs]
-7.5 -17.2 46 -12  992.9  -0.5  742  309           
03 19.02.18 320 (СЗ) 20000 м    10/0 средняя, верхняя 
[Ac trans|Cs]
-6.4 -15.5 48 -10  991.7  -1.1  742  307           
09 19.02.18 330 (СЗ) 6{13}  20000 м    8/0 средняя, верхняя 
[Ac trans|Ci fib]
-6.1 -15.3 48 -11  992.4  0.7  742  307    -5.2       
12 19.02.18 340 (С) 6{10}  20000 м    9/0 средняя, верхняя 
[Ac trans|Ci fib]
-6.8 -15.4 50 -12  993.2  0.8  743  308           
15 19.02.18 010 (С) 5{10}  20000 м    3/0 средняя, верхняя 
[Ac trans|Ci fib]
-7.4 -15.4 53 -12  993.5  0.3  743  309           
18 19.02.18 340 (С) 7{10}  20000 м    4/0 средняя, верхняя 
[Ac trans|Ci fib]
-6.3 -12.9 59 -11  994.7  1.2  744  308           
09 20.02.18 300 (СЗ) 8-10{11}  20000 м    1/0 средняя 
[Ac trans]
-5.2 -13 54 -11  1004.8  2.5  751  310    -3.6       
12 20.02.18 360 (С) 4{10}  20000 м    ясно 
-6.7 -14.3 55 -10  1006.6  1.8  753  312           
15 20.02.18 010 (С) 20000 м    3/0 верхняя 
[Ci fib]
-7.5 -15.3 54 -10  1007.3  0.7  753  313           
18 20.02.18 350 (С) 20000 м    ясно 
-8.9 -14.6 63 -12  1007.9  0.6  754  315           
00 21.02.18 300 (СЗ) 20000 м    1/1 600 м 
[Sc]
-9.2 -13.4 71 -13  1010.1  1.2  755  316           
03 21.02.18 300 (СЗ) 20000 м    8/3 600 м средняя, верхняя 
[Sc|Ac trans|Ci fib]
-7.4 -14.2 58 -9  1009.3  -0.7  755  314           
06 21.02.18 330 (СЗ) 20000 м    10/10 600 м 
[Sc]
-6.6 -14.8 52 -8  1008.3  -0.9  754  313           
18 21.02.18 350 (С) 20000 м  {ливн. осадки}  ясно 
-8.4 -12.9 70 -11  1009.2  0.4  755  315           
00 22.02.18 350 (С) 20000 м    8/3 1000 м средняя, верхняя 
[Sc|Ac As|Ci fib]
-8.3 -13 69 -13  1008.8  -0.3  754  315  -8.8         
03 22.02.18 310 (СЗ) 20000 м  слаб. ливневой снег  10/10 600 м кучево-дожд. 
[Cb cap]
-6.8 -12.6 63 -8  1006.5  -2.3  753  312           
06 22.02.18 тихо ()   2000 м  слаб. ливневой снег  10/10 600 м кучево-дожд. 
[Cb cap]
-6.8 -9.2 83 -7  1004.9  -1.6  751  311           
09 22.02.18 080 (В) 1000 м  ливневой снег  10/10 600 м кучево-дожд. 
[Cb cap]
-4.9 -6.8 87 -6  1004.4  -0.5  751  309    -4.9     
12 22.02.18 330 (СЗ) 10 км  слаб. ливневой снег  10/10 600 м кучево-дожд. 
[Cb cap]
-5.5 -7.1 88 -9  1004  -0.5  751  309           
15 22.02.18 350 (С) 10 км  слаб. ливневой снег  10/10 600 м кучево-дожд. 
[Cb cap]
-7.5 -9.4 86 -11  1003.5  -0.5  750  312           
18 22.02.18 360 (С) 20000 м  {ливн. осадки}  3/3 600 м 
[Sc]
-7.1 -10.6 76 -11  1004.1  0.6  751  312           
00 23.02.18 330 (СЗ) 20000 м    9/3 600 м средняя, верхняя 
[Sc|Ac trans|Ci fib]
-5.6 -11.4 64 -11  1006.4  0.9  752  311           
09 23.02.18 280 (З) 11-15{19}  20000 м  позёмок  5/3 600 м верхняя 
[Sc|Ci fib]
-6 -13.7 54 -13  1011.3  1.4  756  313    -3.4       
21 23.02.18 300 (СЗ) 13-16{18}  20000 м  позёмок  1/1 600 м 
[Sc]
-5.8 -14.8 49 -13  1016.1  1.6  760  314  -6.4      119  неравномерный
сухой снег
100% 
09 24.02.18 330 (СЗ) 9-12{18}  20000 м  позёмок  3/1 600 м верхняя 
[Sc|Ci fib]
-6.4 -13.4 58 -12  1018  -0.3  761  315    -4.6       
Время (UTC), дата Ветер
(°,м/с) 
Видим.   Явления Облачность Т
(°С)
Тd
(°С)
f(%) Тe
(°С)
Pmin
(гПа)
dP
(гПа)
Po
(мм)
O2
(г/м3)
Тmin Tmax R s Состояние
почвы

Для получения пояснительной информации подведите курсор к названию столбца.

ПОГОДА Петропавловск-Камч. - архив

Всё, что Вы хотите узнать о погоде Петропавловск-Камч. - удобно и подробно!

Выберите нужную дату (начиная с 1 января 2015* года) и нажмите кнопку "Найти".
Будут отображены архивные сводки погоды по пункту Петропавловск-Камч., начиная с указанной даты.


Отображать данные в формате CSV (для использования в таблицах Excel)


Внимание! Наш архив погоды предназначен исключительно для личного некоммерческого использования в познавательных целях. Если Вам необходимы официальные справки о состоянии погоды (для производственных, юридических, коммерческих и т.п. целей), обращайтесь в органы Росгидромета.

*Примечание: данная дата относится к архиву по метеостанциям СССР (Россия, СНГ, Балтия).
Архив по метеостанциям Зарубежной Европы и Азии (кроме Китая) хранится 10 дней, по другим регионам земного шара (Китай, Африка, Америка, Австралия, Океания) - 1 день.

Петропавловск-Камч. - район местоположения метеостанции


Название, широта, долгота, высота метеостанции:
Петропавловск-Камч. (обсерватория) 53°ш. 158.6°д. 24 м над ур. моря [Российская Федерация]

Дополнительная информация

В oтличие oт бoльшинства пoгoдных сайтoв мы публикуем пoдрoбную метеoинфoрмацию в детальнoм прoфессиoнальнoм фoрмате.

Характеристики температуры и влажнoсти вoздуха измеряются на высoте 2 м в тени вдали oт зданий и деревьев.
Скoрoсть ветра измеряется на высoте 10 м (на урoвне рoста челoвека скoрoсть ветра ниже в 1.5-2 раза). Если метеoстанция нахoдится в гoрoде или в лесу, тo скoрoсть ветра занижена на 2-4 м/с пo сравнению с oткрытым местoм. Скoрoсть ветра над акватoриями крупных рек и oзёр, а также на вершинах хoлмoв на 2-5 м/с выше, чем в oбычных услoвиях.
Атмoсфернoе давление в разных тoчках местнoсти мoжет значительнo oтличаться oт давления на метеoстанции, в зависимoсти oт услoвий рельефа (при пoдъёме на 10 м давление пoнижается примернo на 1 мм рт.ст.).